Adelanto, CA

8:42 AM PST on January 20, 2017 (GMT -0800)
Palmdale - Butte

Weather History for KGXA - February, 2014

Change the Weather History Date:

Saturday, February 22, 2014

  Actual Average (KPMD) Record (KPMD)
Temperature  
Mean Temperature 54 °F -  
Max Temperature 70 °F 63 °F 76 °F (1995)
Min Temperature 39 °F 35 °F 16 °F (1953)
Degree Days  
Heating Degree Days 10    
Growing Degree Days 4 (Base 50)    
Moisture  
Dew Point 19 °F    
Average Humidity 28    
Maximum Humidity 45    
Minimum Humidity 14    
Precipitation  
Precipitation 0.00 in - - ()
Sea Level Pressure  
Sea Level Pressure 29.96 in    
Wind  
Wind Speed 5 mph (South)    
Max Wind Speed 7 mph    
Max Gust Speed -    
Averages and records for this station are not official NWS values.
T = Trace of Precipitation, MM = Missing Value Source: NWS Daily Summary

Daily Weather History Graph

Daily Weather History Graph

Search for Another Location

Airport or City:

Trip Planner

Search our weather history database for the weather conditions in past years. The results will help you decide how hot, cold, wet, or windy it might be!

Date:

Astronomy

Feb. 22, 2014 Rise Set
Actual Time 6:28 AM PST 5:40 PM PST
Civil Twilight 6:02 AM PST 6:06 PM PST
Nautical Twilight 5:33 AM PST 6:35 PM PST
Astronomical Twilight 5:04 AM PST 7:04 PM PST
Moon 12:22 AM PST (2/22) 11:01 AM PST (2/22)
Length of Visible Light 12h 03m
Length of Day
11h 12m
Waning Gibbous, 49% of the Moon is Illuminated
Feb 22
Waning Gibbous
Mar 1
New
Mar 8
First Quarter
Mar 16
Full
Mar 23
Last Quarter

Hourly Weather History & Observations

Time (PST) Temp. Windchill Dew Point Humidity Pressure Visibility Wind Dir Wind Speed Gust Speed Precip Events Conditions
12:55 AM 43.2 °F 39.7 °F 19.0 °F 38% 29.96 in - SSE 5.8 mph - N/A   Unknown
1:55 AM 42.6 °F 38.4 °F 18.5 °F 38% 29.94 in - Variable 6.9 mph - N/A   Unknown
2:55 AM 39.9 °F 36.7 °F 18.5 °F 42% 29.94 in - South 4.6 mph - N/A   Unknown
3:55 AM 40.1 °F 36.1 °F 19.4 °F 43% 29.94 in - South 5.8 mph - N/A   Unknown
4:55 AM 39.0 °F 35.7 °F 19.2 °F 45% 29.96 in - South 4.6 mph - N/A   Unknown
5:55 AM 40.3 °F - 19.2 °F 43% 29.96 in - North - - N/A   Unknown
6:55 AM - - - N/A% - - North - - N/A   Unknown
7:55 AM 50.9 °F - 21.7 °F 32% 30.00 in - SE 2.3 mph - N/A   Unknown
8:55 AM 55.9 °F - 21.2 °F 26% 30.01 in - WNW 4.6 mph - N/A   Unknown
9:55 AM 60.1 °F - 22.1 °F 23% 30.01 in - NNW 6.9 mph - N/A   Unknown
10:55 AM 62.4 °F - 20.5 °F 20% 30.00 in - Variable 5.8 mph - N/A   Unknown
11:55 AM 65.1 °F - 20.5 °F 18% 29.99 in - WNW 3.5 mph - N/A   Unknown
12:55 PM 65.8 °F - 18.9 °F 17% 29.95 in - NW 4.6 mph - N/A   Unknown
1:55 PM 70.7 °F - 19.2 °F 14% 29.91 in - Variable 5.8 mph - N/A   Unknown
2:55 PM 69.4 °F - 18.3 °F 14% 29.91 in - Variable 1.2 mph - N/A   Unknown
3:55 PM 68.9 °F - 18.5 °F 15% 29.91 in - Variable 5.8 mph - N/A   Unknown
4:55 PM 66.9 °F - 15.3 °F 14% 29.92 in - NNE 5.8 mph - N/A   Unknown
5:55 PM 62.2 °F - 14.4 °F 16% 29.94 in - ENE 3.5 mph - N/A   Unknown
6:55 PM 53.8 °F - 15.4 °F 22% 29.97 in - South 4.6 mph - N/A   Unknown
7:55 PM 51.1 °F - 18.0 °F 27% 29.96 in - Variable 6.9 mph - N/A   Unknown
8:55 PM 49.6 °F - 18.5 °F 29% 29.96 in - South 6.9 mph - N/A   Unknown
9:55 PM 48.0 °F - 19.2 °F 32% 29.96 in - South 3.5 mph - N/A   Unknown
10:55 PM 45.0 °F 42.6 °F 19.0 °F 36% 29.96 in - SSE 4.6 mph - N/A   Unknown
11:55 PM 43.9 °F 42.3 °F 20.5 °F 39% 29.96 in - South 3.5 mph - N/A   Unknown